This is the latest recevied weather packets stored in our database for station/object N7CEE. If no packets are shown the sender has not sent any weather packets the latest 10 day(s).
| Time | Temp. | Humidity | Pressure | Rain* | Wind** | Luminosity | Snow |
|---|---|---|---|---|---|---|---|
| 1777639489 | 6.11° C | 36% | 1021.5 hPa | 0 mm | - | 5 W/m² | - |
| 1777639185 | 6.67° C | 34% | 1021.6 hPa | 0 mm | - | 3 W/m² | - |
| 1777638882 | 6.67° C | 35% | 1021.5 hPa | 0 mm | - | 2 W/m² | - |
| 1777638577 | 6.67° C | 34% | 1021.5 hPa | 0 mm | - | 1 W/m² | - |
| 1777638274 | 7.78° C | 32% | 1021.3 hPa | 0 mm | - | 0 W/m² | - |
| 1777637970 | 7.78° C | 32% | 1021.4 hPa | 0 mm | - | 0 W/m² | - |
| 1777637667 | 7.22° C | 33% | 1021.5 hPa | 0 mm | - | 0 W/m² | - |
| 1777637363 | 7.78° C | 32% | 1021.3 hPa | 0 mm | - | 0 W/m² | - |
| 1777637060 | 8.33° C | 32% | 1021.1 hPa | 0 mm | - | 0 W/m² | - |
| 1777636756 | 8.89° C | 31% | 1021.1 hPa | 0 mm | - | 0 W/m² | - |
| 1777636453 | 8.89° C | 30% | 1021 hPa | 0 mm | - | 0 W/m² | - |
| 1777636149 | 8.89° C | 31% | 1021.1 hPa | 0 mm | - | 0 W/m² | - |
| 1777635844 | 8.33° C | 31% | 1020.9 hPa | 0 mm | - | 0 W/m² | - |
| 1777635541 | 8.33° C | 32% | 1021 hPa | 0 mm | - | 0 W/m² | - |
| 1777635236 | 8.33° C | 32% | 1020.9 hPa | 0 mm | - | 0 W/m² | - |
| 1777634927 | 7.78° C | 32% | 1021.1 hPa | 0 mm | - | 0 W/m² | - |
| 1777634624 | 7.78° C | 33% | 1020.9 hPa | 0 mm | - | 0 W/m² | - |
| 1777634322 | 7.22° C | 33% | 1020.9 hPa | 0 mm | - | 0 W/m² | - |
| 1777634018 | 6.11° C | 36% | 1021 hPa | 0 mm | - | 0 W/m² | - |
| 1777633715 | 5° C | 36% | 1021.1 hPa | 0 mm | - | 0 W/m² | - |
| 1777633414 | 5° C | 36% | 1020.8 hPa | 0 mm | - | 0 W/m² | - |
| 1777633111 | 5° C | 36% | 1021 hPa | 0 mm | - | 0 W/m² | - |
| 1777632807 | 5.56° C | 38% | 1020.9 hPa | 0 mm | - | 0 W/m² | - |
| 1777632503 | 5° C | 34% | 1020.9 hPa | 0 mm | - | 0 W/m² | - |
| 1777632201 | 5° C | 39% | 1020.8 hPa | 0 mm | - | 0 W/m² | - |
* Rain latest hour (hover to see other rain measurements)
** Current wind speed in m/s (hover to see current wind gust speed)